UAL1547 KDEN-KGPI

Flight info

Callsign UAL1547
Flight time N/A
Altitude 38000
Route DDRTH1 DDRTH SKOTT
Aircraft B738/M-SDE2E3FGHIRWXY/LB1

Departure

Time N/A
Airport Denver International Airport (KDEN)

Arrival

Time 2026-04-24 20:30
Airport Glacier Park International Airport (KGPI)
Time Latitude Longitude Altitude Speed Heading
2026-04-24 18:54 40.72467 -105.02830 29047 ft 427 kts 317°
2026-04-24 18:55 40.77105 -105.07654 29903 ft 418 kts 307°
2026-04-24 18:55 40.78897 -105.10625 30347 ft 411 kts 303°
2026-04-24 18:55 40.80637 -105.13607 30721 ft 410 kts 303°
2026-04-24 18:56 40.82371 -105.16549 31051 ft 410 kts 303°
2026-04-24 18:56 40.84130 -105.19510 31423 ft 409 kts 303°
2026-04-24 18:56 40.85890 -105.22462 31824 ft 407 kts 303°
2026-04-24 18:56 40.87643 -105.25396 32209 ft 406 kts 303°
2026-04-24 18:57 40.89394 -105.28328 32546 ft 406 kts 303°
2026-04-24 18:57 40.91141 -105.31255 32885 ft 405 kts 303°
2026-04-24 18:57 40.92887 -105.34182 33236 ft 404 kts 303°
2026-04-24 18:57 40.94625 -105.37100 33603 ft 403 kts 303°
2026-04-24 18:58 40.96361 -105.40015 33917 ft 402 kts 303°
2026-04-24 18:58 40.98091 -105.42924 34150 ft 402 kts 302°
2026-04-24 18:58 40.99821 -105.45839 34338 ft 404 kts 302°
2026-04-24 18:58 41.01556 -105.48765 34590 ft 404 kts 302°
2026-04-24 18:59 41.03288 -105.51686 34874 ft 403 kts 302°
2026-04-24 18:59 41.05019 -105.54609 35123 ft 404 kts 302°
2026-04-24 18:59 41.06754 -105.57542 35345 ft 404 kts 303°
2026-04-24 18:59 41.08489 -105.60479 35575 ft 405 kts 303°
2026-04-24 19:00 41.10203 -105.63381 35811 ft 405 kts 303°
2026-04-24 19:00 41.11941 -105.66327 36035 ft 405 kts 303°
2026-04-24 19:00 41.13679 -105.69276 36230 ft 406 kts 303°
2026-04-24 19:00 41.15420 -105.72233 36433 ft 407 kts 303°
2026-04-24 19:01 41.17164 -105.75197 36669 ft 407 kts 303°
2026-04-24 19:01 41.18911 -105.78170 36870 ft 408 kts 303°
2026-04-24 19:01 41.20663 -105.81153 37029 ft 409 kts 303°
2026-04-24 19:01 41.22415 -105.84143 37174 ft 411 kts 303°
2026-04-24 19:02 41.23580 -105.86131 37291 ft 411 kts 303°
2026-04-24 19:02 41.25934 -105.90151 37525 ft 413 kts 303°
2026-04-24 19:02 41.27695 -105.93162 37682 ft 413 kts 303°
2026-04-24 19:03 41.31212 -105.99186 37776 ft 417 kts 303°
2026-04-24 19:03 41.34182 -106.04279 37758 ft 416 kts 303°
2026-04-24 19:04 41.37720 -106.10359 37741 ft 414 kts 303°
2026-04-24 19:04 41.41238 -106.16418 37743 ft 412 kts 303°
2026-04-24 19:05 41.44738 -106.22457 37741 ft 411 kts 303°
2026-04-24 19:05 41.48825 -106.27834 37767 ft 417 kts 315°
2026-04-24 19:06 41.53325 -106.32662 37741 ft 418 kts 315°
2026-04-24 19:06 41.57838 -106.37536 37747 ft 417 kts 315°
2026-04-24 19:07 41.62337 -106.42443 37747 ft 417 kts 315°
2026-04-24 19:07 41.66065 -106.46532 37746 ft 416 kts 315°
2026-04-24 19:08 41.71281 -106.52268 37746 ft 415 kts 315°
2026-04-24 19:08 41.75737 -106.57179 37744 ft 414 kts 315°
2026-04-24 19:09 41.80185 -106.62091 37734 ft 414 kts 315°
2026-04-24 19:09 41.84596 -106.66971 37743 ft 414 kts 315°
2026-04-24 19:10 41.89037 -106.71893 37751 ft 414 kts 314°
2026-04-24 19:10 41.93481 -106.76827 37751 ft 416 kts 314°
2026-04-24 19:11 41.97957 -106.81808 37762 ft 418 kts 314°
2026-04-24 19:11 42.02453 -106.86820 37754 ft 421 kts 314°
2026-04-24 19:12 42.06964 -106.91855 37752 ft 422 kts 314°
2026-04-24 19:12 42.11454 -106.96876 37738 ft 422 kts 314°
2026-04-24 19:13 42.15235 -107.01112 37730 ft 422 kts 314°
2026-04-24 19:13 42.20470 -107.06989 37722 ft 420 kts 314°
2026-04-24 19:14 42.24959 -107.12039 37743 ft 420 kts 314°
2026-04-24 19:14 42.29439 -107.17089 37736 ft 419 kts 314°
2026-04-24 19:15 42.33905 -107.22132 37750 ft 418 kts 314°
2026-04-24 19:15 42.38360 -107.27174 37759 ft 417 kts 314°
2026-04-24 19:16 42.45031 -107.34743 37763 ft 417 kts 314°
2026-04-24 19:16 42.49481 -107.39803 37781 ft 418 kts 314°
2026-04-24 19:17 42.53934 -107.44876 37796 ft 419 kts 314°
2026-04-24 19:17 42.58404 -107.49979 37825 ft 421 kts 314°
2026-04-24 19:18 42.62857 -107.55072 37840 ft 423 kts 315°
2026-04-24 19:18 42.67361 -107.60234 37857 ft 424 kts 315°
2026-04-24 19:19 42.71878 -107.65419 37880 ft 426 kts 315°
2026-04-24 19:19 42.76414 -107.70637 37892 ft 428 kts 315°
2026-04-24 19:20 42.80964 -107.75881 37912 ft 429 kts 315°
2026-04-24 19:20 42.85524 -107.81147 37927 ft 430 kts 315°
2026-04-24 19:21 42.90093 -107.86434 37944 ft 431 kts 315°
2026-04-24 19:21 42.94674 -107.91746 37953 ft 432 kts 315°
2026-04-24 19:22 42.99257 -107.97071 37949 ft 432 kts 315°
2026-04-24 19:22 43.03814 -108.02377 37954 ft 433 kts 315°
2026-04-24 19:23 43.08399 -108.07726 37961 ft 433 kts 315°
2026-04-24 19:23 43.12978 -108.13080 37953 ft 433 kts 315°
2026-04-24 19:24 43.17557 -108.18444 37948 ft 433 kts 315°
2026-04-24 19:24 43.21368 -108.22917 37947 ft 434 kts 315°
2026-04-24 19:25 43.25952 -108.28307 37957 ft 434 kts 315°
2026-04-24 19:25 43.30472 -108.33628 37954 ft 424 kts 315°
2026-04-24 19:26 43.34930 -108.38891 37970 ft 421 kts 315°
2026-04-24 19:26 43.39356 -108.44129 37987 ft 419 kts 315°
2026-04-24 19:27 43.43773 -108.49367 37994 ft 418 kts 315°
2026-04-24 19:27 43.48157 -108.54576 37993 ft 419 kts 315°
2026-04-24 19:28 43.52581 -108.59842 37987 ft 421 kts 315°
2026-04-24 19:28 43.57032 -108.65152 37985 ft 423 kts 316°
2026-04-24 19:29 43.63725 -108.73154 37977 ft 425 kts 316°
2026-04-24 19:30 43.68200 -108.78518 37974 ft 427 kts 316°
2026-04-24 19:30 43.72689 -108.83910 37975 ft 428 kts 316°
2026-04-24 19:31 43.77153 -108.89282 37976 ft 428 kts 316°
2026-04-24 19:31 43.81640 -108.94693 37979 ft 428 kts 316°
2026-04-24 19:32 43.86129 -109.00119 37988 ft 428 kts 316°
2026-04-24 19:32 43.90611 -109.05546 37978 ft 428 kts 316°
2026-04-24 19:33 43.95082 -109.10972 37989 ft 426 kts 316°
2026-04-24 19:33 43.99541 -109.16395 37989 ft 425 kts 316°
2026-04-24 19:34 44.03984 -109.21810 37993 ft 424 kts 316°
2026-04-24 19:34 44.08418 -109.27224 37992 ft 424 kts 316°
2026-04-24 19:35 44.12813 -109.32603 38002 ft 423 kts 316°
2026-04-24 19:35 44.17241 -109.38034 38006 ft 424 kts 316°
2026-04-24 19:36 44.21667 -109.43474 38010 ft 425 kts 316°
2026-04-24 19:36 44.26111 -109.48946 38000 ft 427 kts 316°
2026-04-24 19:37 44.30566 -109.54443 38001 ft 427 kts 316°
2026-04-24 19:37 44.34987 -109.59910 37988 ft 427 kts 316°
2026-04-24 19:38 44.39443 -109.65433 37983 ft 429 kts 316°
2026-04-24 19:38 44.43910 -109.70979 37980 ft 429 kts 316°
2026-04-24 19:39 44.48380 -109.76542 37974 ft 430 kts 316°
2026-04-24 19:39 44.52851 -109.82118 37975 ft 430 kts 316°
2026-04-24 19:40 44.57309 -109.87690 37963 ft 429 kts 316°
2026-04-24 19:40 44.61763 -109.93268 37958 ft 428 kts 316°
2026-04-24 19:41 44.66172 -109.98802 37961 ft 428 kts 316°
2026-04-24 19:41 44.70599 -110.04371 37966 ft 427 kts 316°
2026-04-24 19:42 44.75015 -110.09937 37974 ft 426 kts 316°
2026-04-24 19:42 44.79418 -110.15499 37981 ft 424 kts 316°
2026-04-24 19:43 44.83809 -110.21058 37985 ft 423 kts 316°
2026-04-24 19:43 44.88188 -110.26615 38002 ft 423 kts 316°
2026-04-24 19:44 44.92571 -110.32187 38014 ft 425 kts 316°
2026-04-24 19:44 44.96968 -110.37790 38008 ft 426 kts 316°
2026-04-24 19:45 45.01378 -110.43421 38030 ft 428 kts 316°
2026-04-24 19:45 45.05803 -110.49084 38034 ft 430 kts 316°
2026-04-24 19:46 45.10216 -110.54743 38049 ft 431 kts 316°
2026-04-24 19:46 45.14659 -110.60453 38056 ft 432 kts 316°
2026-04-24 19:47 45.19107 -110.66182 38061 ft 432 kts 316°
2026-04-24 19:47 45.23549 -110.71916 38066 ft 432 kts 316°
2026-04-24 19:48 45.27992 -110.77665 38074 ft 431 kts 316°
2026-04-24 19:48 45.34626 -110.86272 38079 ft 430 kts 316°
2026-04-24 19:49 45.43425 -110.97732 38086 ft 428 kts 316°
2026-04-24 19:50 45.52156 -111.09153 38075 ft 426 kts 316°
2026-04-24 19:51 45.58694 -111.17739 38058 ft 426 kts 316°
2026-04-24 19:52 45.65227 -111.26348 38051 ft 425 kts 316°
2026-04-24 19:52 45.69574 -111.32091 38045 ft 426 kts 316°
2026-04-24 19:53 45.73923 -111.37849 38048 ft 426 kts 316°
2026-04-24 19:54 45.80453 -111.46519 38061 ft 427 kts 316°
2026-04-24 19:54 45.84813 -111.52326 38062 ft 428 kts 316°
2026-04-24 19:55 45.88443 -111.57169 38075 ft 429 kts 316°
2026-04-24 19:55 45.93526 -111.63967 38081 ft 430 kts 316°
2026-04-24 19:56 45.97915 -111.69851 38086 ft 431 kts 316°
2026-04-24 19:56 46.02308 -111.75753 38091 ft 432 kts 316°
2026-04-24 19:57 46.06709 -111.81681 38095 ft 434 kts 316°
2026-04-24 19:57 46.11092 -111.87597 38094 ft 435 kts 316°
2026-04-24 19:58 46.15523 -111.93587 38113 ft 440 kts 316°
2026-04-24 19:58 46.20026 -111.99690 38116 ft 447 kts 316°
2026-04-24 19:59 46.24574 -112.05872 38121 ft 451 kts 316°
2026-04-24 19:59 46.29142 -112.12096 38097 ft 450 kts 316°
2026-04-24 20:00 46.33677 -112.18290 38081 ft 445 kts 316°
2026-04-24 20:00 46.38137 -112.24396 38078 ft 440 kts 316°
2026-04-24 20:01 46.42571 -112.30482 38082 ft 438 kts 316°
2026-04-24 20:01 46.46956 -112.36514 38075 ft 437 kts 315°
2026-04-24 20:02 46.50648 -112.41603 38081 ft 437 kts 316°
2026-04-24 20:02 46.55773 -112.48686 38091 ft 439 kts 315°
2026-04-24 20:03 46.60217 -112.54842 38100 ft 444 kts 315°
2026-04-24 20:03 46.64710 -112.61082 38094 ft 448 kts 315°
2026-04-24 20:04 46.69232 -112.67377 38084 ft 449 kts 315°
2026-04-24 20:04 46.73737 -112.73663 38075 ft 447 kts 315°
2026-04-24 20:05 46.78185 -112.79885 38078 ft 444 kts 315°
2026-04-24 20:05 46.82642 -112.86133 38087 ft 444 kts 315°
2026-04-24 20:05 46.84873 -112.89268 37895 ft 448 kts 316°
2026-04-24 20:06 46.87137 -112.92453 37321 ft 452 kts 316°
2026-04-24 20:06 46.89387 -112.95622 36731 ft 448 kts 316°
2026-04-24 20:06 46.91626 -112.98778 36109 ft 446 kts 316°
2026-04-24 20:06 46.93857 -113.01928 35459 ft 446 kts 316°
2026-04-24 20:07 46.95335 -113.04016 35007 ft 445 kts 316°
2026-04-24 20:07 46.98281 -113.08184 34169 ft 442 kts 316°
2026-04-24 20:07 47.00477 -113.11294 33563 ft 437 kts 316°
2026-04-24 20:07 47.02670 -113.14405 32771 ft 437 kts 316°
2026-04-24 20:08 47.04838 -113.17484 32201 ft 432 kts 316°
2026-04-24 20:08 47.06987 -113.20540 31690 ft 426 kts 316°
2026-04-24 20:08 47.09102 -113.23550 31190 ft 421 kts 315°
2026-04-24 20:08 47.11188 -113.26523 30710 ft 415 kts 315°
2026-04-24 20:09 47.13245 -113.29458 30228 ft 410 kts 315°
2026-04-24 20:09 47.15282 -113.32368 29691 ft 405 kts 315°
2026-04-24 20:09 47.17287 -113.35236 29209 ft 398 kts 315°
2026-04-24 20:09 47.19257 -113.38058 28730 ft 392 kts 316°
2026-04-24 20:10 47.21176 -113.40809 28252 ft 387 kts 316°
2026-04-24 20:10 47.23096 -113.43565 27782 ft 382 kts 316°
2026-04-24 20:10 47.24985 -113.46278 27323 ft 377 kts 316°
2026-04-24 20:10 47.26851 -113.48961 26842 ft 374 kts 316°
2026-04-24 20:11 47.28704 -113.51628 26412 ft 369 kts 317°
2026-04-24 20:11 47.30530 -113.54260 25948 ft 366 kts 317°
2026-04-24 20:11 47.32340 -113.56871 25509 ft 363 kts 317°
2026-04-24 20:11 47.34135 -113.59462 25058 ft 360 kts 318°
2026-04-24 20:12 47.35919 -113.62040 24612 ft 357 kts 318°
2026-04-24 20:12 47.37092 -113.63738 24320 ft 356 kts 318°
2026-04-24 20:12 47.38853 -113.66286 23902 ft 354 kts 319°
2026-04-24 20:12 47.40603 -113.68821 23424 ft 352 kts 319°
2026-04-24 20:13 47.42341 -113.71341 22952 ft 348 kts 319°
2026-04-24 20:13 47.44060 -113.73838 22525 ft 344 kts 319°
2026-04-24 20:13 47.45757 -113.76303 22097 ft 340 kts 319°
2026-04-24 20:13 47.47435 -113.78745 21684 ft 336 kts 319°
2026-04-24 20:14 47.49092 -113.81158 21267 ft 333 kts 318°
2026-04-24 20:14 47.50737 -113.83555 20856 ft 330 kts 318°
2026-04-24 20:14 47.52362 -113.85926 20442 ft 326 kts 318°
2026-04-24 20:14 47.53970 -113.88273 20053 ft 324 kts 318°
2026-04-24 20:15 47.55572 -113.90613 19639 ft 323 kts 318°
2026-04-24 20:15 47.57163 -113.92940 19232 ft 320 kts 318°
2026-04-24 20:15 47.58740 -113.95249 18826 ft 318 kts 318°
2026-04-24 20:15 47.60305 -113.97542 18438 ft 314 kts 318°
2026-04-24 20:16 47.61851 -113.99810 17993 ft 312 kts 318°
2026-04-24 20:16 47.63386 -114.02063 17599 ft 309 kts 318°
2026-04-24 20:16 47.64906 -114.04297 17200 ft 306 kts 317°
2026-04-24 20:16 47.66409 -114.06506 16810 ft 302 kts 317°
2026-04-24 20:17 47.67880 -114.08670 16424 ft 303 kts 317°
2026-04-24 20:17 47.70913 -114.13135 15603 ft 312 kts 317°
2026-04-24 20:17 47.72471 -114.15412 15239 ft 316 kts 317°
2026-04-24 20:18 47.73523 -114.16921 14975 ft 318 kts 318°
2026-04-24 20:18 47.75633 -114.19929 14414 ft 315 kts 318°
2026-04-24 20:18 47.77206 -114.22174 14007 ft 312 kts 318°
2026-04-24 20:18 47.78769 -114.24407 13554 ft 310 kts 317°
2026-04-24 20:19 47.80321 -114.26626 13155 ft 307 kts 317°
2026-04-24 20:19 47.81856 -114.28828 12730 ft 305 kts 317°
2026-04-24 20:19 47.83375 -114.31007 12334 ft 302 kts 317°
2026-04-24 20:19 47.84876 -114.33165 11948 ft 299 kts 317°
2026-04-24 20:20 47.86374 -114.35319 11537 ft 298 kts 317°
2026-04-24 20:20 47.87837 -114.37426 11153 ft 295 kts 317°
2026-04-24 20:20 47.89328 -114.39572 10748 ft 291 kts 317°
2026-04-24 20:20 47.90732 -114.41598 10539 ft 276 kts 317°
2026-04-24 20:21 47.92079 -114.43545 10399 ft 265 kts 317°
2026-04-24 20:21 47.93378 -114.45421 10290 ft 256 kts 317°
2026-04-24 20:21 47.94645 -114.47252 10183 ft 250 kts 317°
2026-04-24 20:21 47.95856 -114.49003 10045 ft 236 kts 317°
2026-04-24 20:22 47.97031 -114.50703 9846 ft 238 kts 317°
2026-04-24 20:22 47.98225 -114.52430 9565 ft 236 kts 317°
2026-04-24 20:22 47.99438 -114.54053 9311 ft 233 kts 329°
2026-04-24 20:22 48.00953 -114.54841 9059 ft 232 kts 353°
2026-04-24 20:23 48.02565 -114.54730 8773 ft 234 kts 11°
2026-04-24 20:23 48.04043 -114.53733 8528 ft 235 kts 31°
2026-04-24 20:23 48.05377 -114.52366 8275 ft 229 kts 30°
2026-04-24 20:23 48.06675 -114.51059 8020 ft 222 kts 31°
2026-04-24 20:24 48.07929 -114.49760 7736 ft 216 kts 31°
2026-04-24 20:24 48.09145 -114.48492 7525 ft 211 kts 31°
2026-04-24 20:24 48.10321 -114.47254 7279 ft 207 kts 30°
2026-04-24 20:24 48.11498 -114.46023 7049 ft 206 kts 30°
2026-04-24 20:25 48.12676 -114.44798 6838 ft 206 kts 30°
2026-04-24 20:25 48.13848 -114.43565 6589 ft 206 kts 30°
2026-04-24 20:25 48.15020 -114.42310 6389 ft 209 kts 32°
2026-04-24 20:25 48.16218 -114.41054 6125 ft 211 kts 30°
2026-04-24 20:26 48.17428 -114.39805 5905 ft 211 kts 30°
2026-04-24 20:26 48.18625 -114.38555 5780 ft 209 kts 30°
2026-04-24 20:26 48.19785 -114.37341 5524 ft 196 kts 30°
2026-04-24 20:26 48.20869 -114.36201 5273 ft 186 kts 31°
2026-04-24 20:27 48.21902 -114.35131 4991 ft 174 kts 30°
2026-04-24 20:27 48.22870 -114.34112 4657 ft 166 kts 32°
2026-04-24 20:27 48.23800 -114.33126 4420 ft 165 kts 32°
2026-04-24 20:27 48.24728 -114.32175 4155 ft 159 kts 35°
2026-04-24 20:28 48.25606 -114.31242 3941 ft 153 kts 35°
2026-04-24 20:28 48.26477 -114.30324 3786 ft 153 kts 33°
2026-04-24 20:28 48.27335 -114.29420 3616 ft 152 kts 34°
2026-04-24 20:28 48.28202 -114.28523 3425 ft 150 kts 31°
2026-04-24 20:29 48.28771 -114.27931 3273 ft 150 kts 33°
2026-04-24 20:29 48.29910 -114.26736 3013 ft 148 kts 34°
2026-04-24 20:29 48.30708 -114.25904 2976 ft 121 kts 34°
2026-04-24 20:29 48.31219 -114.25373 2980 ft 57 kts 34°
2026-04-24 20:30 48.31354 -114.25211 2980 ft 11 kts 82°
2026-04-24 20:30 48.31304 -114.25125 2979 ft 11 kts 153°
2026-04-24 20:30 48.31232 -114.25151 2980 ft 11 kts 214°
2026-04-24 20:30 48.31170 -114.25216 2980 ft 11 kts 214°
2026-04-24 20:31 48.31100 -114.25288 2980 ft 14 kts 214°
2026-04-24 20:31 48.31009 -114.25311 2979 ft 13 kts 179°
2026-04-24 20:31 48.30920 -114.25326 2979 ft 13 kts 204°
2026-04-24 20:31 48.30847 -114.25398 2978 ft 8 kts 214°
2026-04-24 20:32 48.30804 -114.25392 2978 ft 6 kts 123°
2026-04-24 20:32 48.30789 -114.25358 2978 ft 0 kts 127°